User: anonymous   Login
Location: Unspecified
(0.0000°N, 0.0000°E)
Time: 20:22:35
(UTC+00:00)
Language:

DOVE 4 - Orbit

View from above orbital plane
View from above orbital plane
View from above satellite
View from above satellite

Ground track
Ground track

The orbit data is extracted from the following two-line orbital elements,

1 39430U 13066Q   25349.83141459  .00002589  00000-0  40026-3 0  9992
2 39430  97.6592 196.7635 0129530 306.6195  52.3154 14.68603150642990
Epoch (UTC): 15 December 2025 19:57:14
Eccentricity: 0.0129530
inclination: 97.6592°
perigee height: 574 km
apogee height: 757 km
right ascension of ascending node: 196.7635°
argument of perigee: 306.6195°
revolutions per day: 14.68603150
mean anomaly at epoch: 52.3154°
orbit number at epoch: 64299

The dashed part of the orbit path shows where the satellite is in the earth's shadow,  

DLR